Omaha Millard, NE

3:44 PM CDT on October 20, 2017 (GMT -0500)
Millard Municipal

Weather History for KMLE - October, 2012

Change the Weather History Date:

Monday, October 8, 2012

  Actual Average (KOFF) Record (KOFF)
Temperature  
Mean Temperature 55 °F -  
Max Temperature 70 °F 67 °F 90 °F (2010)
Min Temperature 40 °F 45 °F 23 °F (2000)
Degree Days  
Heating Degree Days 10    
Growing Degree Days 5 (Base 50)    
Moisture  
Dew Point 33 °F    
Average Humidity 49    
Maximum Humidity 74    
Minimum Humidity 25    
Precipitation  
Precipitation 0.00 in - - ()
Sea Level Pressure  
Sea Level Pressure 29.89 in    
Wind  
Wind Speed 6 mph (South)    
Max Wind Speed 15 mph    
Max Gust Speed 24 mph    
Visibility 10 miles    
Events      
Averages and records for this station are not official NWS values.
T = Trace of Precipitation, MM = Missing Value Source: NWS Daily Summary

Daily Weather History Graph

Daily Weather History Graph

Search for Another Location

Airport or City:

Trip Planner

Search our weather history database for the weather conditions in past years. The results will help you decide how hot, cold, wet, or windy it might be!

Date:

Astronomy

Oct. 08, 2012 Rise Set
Actual Time 7:29 AM CDT 6:53 PM CDT
Civil Twilight 7:01 AM CDT 7:21 PM CDT
Nautical Twilight 6:29 AM CDT 7:53 PM CDT
Astronomical Twilight 5:57 AM CDT 8:25 PM CDT
Moon 12:06 AM CDT (10/8) 2:47 PM CDT (10/8)
Length of Visible Light 12h 20m
Length of Day
11h 24m
Last Quarter, 46% of the Moon is Illuminated
Oct 8
Last Quarter
Oct 15
New
Oct 21
First Quarter
Oct 29
Full
Nov 6
Last Quarter

Hourly Weather History & Observations

Time (CDT) Temp. Windchill Dew Point Humidity Pressure Visibility Wind Dir Wind Speed Gust Speed Precip Events Conditions
12:15 AM 42.8 °F 41.1 °F 30.7 °F 62% 30.02 in 10.0 mi South 3.5 mph - N/A   Clear
12:35 AM 42.1 °F 40.2 °F 30.9 °F 65% 30.02 in 10.0 mi SSE 3.5 mph - N/A   Clear
12:55 AM 41.4 °F 39.4 °F 31.1 °F 67% 30.02 in 10.0 mi SSE 3.5 mph - N/A   Clear
1:15 AM 41.0 °F 39.0 °F 31.6 °F 69% 30.02 in 10.0 mi SSE 3.5 mph - N/A   Clear
1:35 AM 40.5 °F 38.4 °F 31.8 °F 71% 30.01 in 10.0 mi SSE 3.5 mph - N/A   Clear
1:55 AM 40.3 °F 38.2 °F 32.2 °F 73% 30.01 in 10.0 mi South 3.5 mph - N/A   Clear
2:15 AM 44.1 °F 41.5 °F 33.8 °F 67% 30.01 in 10.0 mi SSW 4.6 mph - N/A   Clear
2:35 AM 44.2 °F - 33.8 °F 67% 30.01 in 10.0 mi Calm Calm - N/A   Clear
2:55 AM 44.1 °F 41.5 °F 33.8 °F 67% 30.00 in 10.0 mi SSW 4.6 mph - N/A   Clear
3:15 AM 43.7 °F 40.3 °F 33.8 °F 68% 29.99 in 10.0 mi South 5.8 mph - N/A   Clear
3:35 AM 43.3 °F 39.9 °F 33.6 °F 69% 29.98 in 10.0 mi SSW 5.8 mph - N/A   Clear
3:55 AM 43.2 °F 40.5 °F 33.4 °F 69% 29.98 in 10.0 mi South 4.6 mph - N/A   Clear
4:15 AM 42.8 °F 39.3 °F 33.6 °F 70% 29.98 in 10.0 mi SSW 5.8 mph - N/A   Clear
4:35 AM 42.3 °F 39.4 °F 33.6 °F 71% 29.97 in 10.0 mi SSW 4.6 mph - N/A   Clear
4:55 AM 41.9 °F 39.0 °F 33.3 °F 71% 29.97 in 10.0 mi South 4.6 mph - N/A   Clear
5:15 AM 41.7 °F 37.3 °F 33.3 °F 72% 29.98 in 10.0 mi South 6.9 mph - N/A   Clear
5:35 AM 41.5 °F 37.8 °F 33.4 °F 73% 29.97 in 10.0 mi South 5.8 mph - N/A   Clear
5:55 AM 41.2 °F 39.2 °F 33.4 °F 74% 29.97 in 10.0 mi South 3.5 mph - N/A   Clear
6:15 AM 41.2 °F 37.3 °F 33.3 °F 73% 29.97 in 10.0 mi South 5.8 mph - N/A   Clear
6:35 AM 41.2 °F 36.6 °F 33.3 °F 73% 29.97 in 10.0 mi South 6.9 mph - N/A   Clear
6:55 AM 41.0 °F 37.1 °F 33.3 °F 74% 29.96 in 10.0 mi South 5.8 mph - N/A   Clear
7:15 AM 41.2 °F 38.2 °F 33.3 °F 73% 29.96 in 10.0 mi SSW 4.6 mph - N/A   Clear
7:35 AM 41.2 °F 39.2 °F 33.4 °F 74% 29.96 in 10.0 mi South 3.5 mph - N/A   Clear
7:55 AM 41.5 °F - 33.3 °F 72% 29.96 in 7.0 mi Calm Calm - N/A   Clear
8:15 AM 41.4 °F - 33.4 °F 73% 29.96 in 5.0 mi Calm Calm - N/A   Haze
8:35 AM 42.1 °F 38.4 °F 33.8 °F 72% 29.96 in 10.0 mi SSE 5.8 mph - N/A   Clear
8:55 AM 43.2 °F 39.7 °F 33.8 °F 70% 29.96 in 10.0 mi SSE 5.8 mph - N/A   Clear
9:15 AM 44.6 °F 41.4 °F 34.0 °F 66% 29.96 in 10.0 mi South 5.8 mph - N/A   Clear
9:35 AM 46.0 °F 41.4 °F 34.0 °F 63% 29.95 in 10.0 mi South 9.2 mph - N/A   Clear
9:55 AM 48.4 °F - 33.1 °F 56% 29.95 in 10.0 mi South 9.2 mph - N/A   Clear
10:15 AM 49.6 °F - 33.4 °F 54% 29.94 in 10.0 mi South 9.2 mph - N/A   Clear
10:35 AM 51.8 °F - 33.4 °F 50% 29.94 in 10.0 mi South 8.1 mph - N/A   Clear
10:55 AM 52.9 °F - 33.4 °F 48% 29.94 in 10.0 mi South 8.1 mph - N/A   Clear
11:15 AM 54.5 °F - 33.3 °F 45% 29.93 in 10.0 mi SSW 10.4 mph - N/A   Clear
11:35 AM 56.8 °F - 33.8 °F 42% 29.92 in 10.0 mi South 9.2 mph - N/A   Clear
11:55 AM 58.3 °F - 33.6 °F 39% 29.91 in 10.0 mi South 11.5 mph 16.1 mph N/A   Clear
12:15 PM 60.3 °F - 33.6 °F 37% 29.91 in 10.0 mi South 10.4 mph 18.4 mph N/A   Clear
12:55 PM 63.1 °F - 33.6 °F 33% 29.88 in 10.0 mi South 13.8 mph - N/A   Clear
1:15 PM 64.2 °F - 33.4 °F 32% 29.87 in 10.0 mi South 9.2 mph 18.4 mph N/A   Clear
1:35 PM 65.3 °F - 33.1 °F 30% 29.86 in 10.0 mi SSW 10.4 mph 18.4 mph N/A   Clear
1:55 PM 67.1 °F - 32.5 °F 28% 29.85 in 10.0 mi South 12.7 mph 19.6 mph N/A   Clear
2:15 PM 67.8 °F - 32.0 °F 26% 29.84 in 10.0 mi SW 11.5 mph 24.2 mph N/A   Clear
2:35 PM 68.7 °F - 31.8 °F 25% 29.83 in 10.0 mi SSW 15.0 mph 21.9 mph N/A   Clear
2:55 PM 69.1 °F - 31.8 °F 25% 29.81 in 10.0 mi SSW 12.7 mph 21.9 mph N/A   Clear
3:15 PM 68.9 °F - 32.2 °F 26% 29.81 in 10.0 mi SSW 11.5 mph 19.6 mph N/A   Clear
3:35 PM 69.3 °F - 32.4 °F 26% 29.81 in 10.0 mi SSW 11.5 mph 17.3 mph N/A   Clear
3:55 PM 69.4 °F - 32.5 °F 26% 29.80 in 10.0 mi SSW 13.8 mph 21.9 mph N/A   Clear
4:15 PM 69.6 °F - 32.9 °F 26% 29.80 in 10.0 mi SSW 12.7 mph 20.7 mph N/A   Clear
4:35 PM 70.3 °F - 32.7 °F 25% 29.79 in 10.0 mi SSW 11.5 mph 17.3 mph N/A   Clear
4:55 PM 70.5 °F - 32.9 °F 25% 29.79 in 10.0 mi SSW 10.4 mph 17.3 mph N/A   Clear
5:15 PM 70.3 °F - 32.9 °F 25% 29.79 in 10.0 mi SSW 11.5 mph 17.3 mph N/A   Clear
5:35 PM 70.9 °F - 32.9 °F 25% 29.78 in 10.0 mi SSW 8.1 mph 18.4 mph N/A   Clear
5:55 PM 70.2 °F - 32.4 °F 25% 29.78 in 10.0 mi SSW 6.9 mph 16.1 mph N/A   Clear
6:15 PM 69.3 °F - 32.2 °F 25% 29.78 in 10.0 mi South 5.8 mph - N/A   Clear
6:35 PM 68.0 °F - 32.0 °F 26% 29.78 in 10.0 mi South 6.9 mph - N/A   Clear
6:55 PM 66.9 °F - 32.4 °F 28% 29.78 in 10.0 mi SSE 5.8 mph - N/A   Clear
7:15 PM 65.3 °F - 32.7 °F 30% 29.78 in 10.0 mi SSE 6.9 mph - N/A   Clear
7:35 PM 64.4 °F - 32.9 °F 31% 29.78 in 10.0 mi SSE 5.8 mph - N/A   Clear
7:55 PM 63.7 °F - 32.7 °F 31% 29.78 in 10.0 mi SSE 6.9 mph - N/A   Clear
8:15 PM 63.3 °F - 32.4 °F 31% 29.78 in 10.0 mi SSE 8.1 mph - N/A   Clear
8:35 PM 62.6 °F - 32.0 °F 32% 29.79 in 10.0 mi SSE 5.8 mph - N/A   Clear
8:55 PM 61.3 °F - 32.0 °F 33% 29.79 in 10.0 mi SSE 6.9 mph - N/A   Clear
9:15 PM 60.8 °F - 32.0 °F 34% 29.79 in 10.0 mi SSE 9.2 mph - N/A   Clear
9:35 PM 60.3 °F - 32.7 °F 35% 29.79 in 10.0 mi South 8.1 mph - N/A   Clear
9:55 PM 61.0 °F - 33.8 °F 36% 29.79 in 10.0 mi South 6.9 mph - N/A   Clear
10:15 PM 61.0 °F - 34.0 °F 36% 29.79 in 10.0 mi South 6.9 mph - N/A   Clear
10:55 PM 59.5 °F - 34.0 °F 38% 29.80 in 10.0 mi West 4.6 mph - N/A   Clear
11:15 PM 59.0 °F - 34.0 °F 39% 29.82 in 10.0 mi Calm Calm - N/A   Clear
11:35 PM 57.7 °F - 34.3 °F 41% 29.82 in 10.0 mi Calm Calm - N/A   Clear
11:55 PM 55.9 °F - 34.9 °F 45% 29.82 in 10.0 mi South 3.5 mph - N/A   Clear